Regional Weather Roundup
Issued by NWS

Home | Current Version | Previous Version | Text Only | Print | Product List | Glossary On
Versions: 1 2 3 4 5 6 7 8 9 10 11 12 13 14 15 16 17 18 19 20 21 22 23 24 25 26 27 28 29 30 31 32 33 34 35 36 37 38 39 40 41 42 43 44 45 46 47 48 49 50
000
ASUS43 KDTX 202110
RWRMI
MICHIGAN HOURLY REGIONAL WEATHER ROUNDUP
NATIONAL WEATHER SERVICE DETROIT/PONTIAC MI
500 PM EDT SAT SEP 20 2014

NOTE: "FAIR" INDICATES FEW OR NO CLOUDS BELOW 12,000 FEET WITH NO
SIGNIFICANT WEATHER AND/OR OBSTRUCTION TO VISIBILITY.

MIZ047>049-052>055-059>063-066>070-074>076-081>083-202200-
SOUTHEAST LOWER MICHIGAN

CITY           SKY/WX    TMP DP  RH WIND       PRES   REMARKS
ADRIAN         PTSUNNY   80  61  52 SW12G18   29.84F
ALMA           CLOUDY    76  65  68 SW16G25   29.76F
ANN ARBOR      LGT RAIN  74  63  68 SW8       29.83F
BAD AXE        MOSUNNY   76  65  67 SW16G24   29.74S
DETROIT CITY   PTSUNNY   79  61  53 SW21G26   29.81F
DETROIT        LGT RAIN  76  63  64 S15G21    29.83F
FLINT          MOSUNNY   79  63  57 S16       29.77F
GROSSE ILE     PTSUNNY   77  61  57 S10       29.82F
HILLSDALE      CLOUDY    74  67  76 SW8       29.84F
HOWELL         PTSUNNY   76  62  61 SW14G20   29.80F

CITY           SKY/WX    TMP DP  RH WIND       PRES   REMARKS
JACKSON        LGT RAIN  72  65  78 SW7G18    29.83F
LAMBERTVILLE   MOSUNNY   81  59  47 SW9       29.85F
LANSING        LGT RAIN  75  64  68 SW13      29.78F
LAPEER         NOT AVBL
MASON          PTSUNNY   75  63  64 S9G24     29.79F
MONROE         PTSUNNY   79  59  50 SW10G20   29.82F
MT. CLEMENS    PTSUNNY   78  62  57 S20G25    29.78F
PONTIAC        CLOUDY    76  61  59 SW17G25   29.81F
PORT HOPE        N/A     77  61  57 SW7G20    29.71S
PORT HURON     PTSUNNY   77  64  65 S13       29.79F
TRI CITIES     MOSUNNY   78  64  61 SW17G25   29.74F
YPSILANTI      PTSUNNY   79  63  57 SW14      29.83F
$$
MIZ043>046-050>051-056>058-064>065-071>073-077>080-202200-
SOUTHWEST LOWER MICHIGAN

CITY           SKY/WX    TMP DP  RH WIND       PRES   REMARKS
BATTLE CREEK   PTSUNNY   75  64  68 SW14G29   29.82F
BENTON HARBOR  LGT RAIN  69  66  90 SW5       29.80F
BIG RAPIDS     CLOUDY    65  65  98 SW7G20    29.75F FOG
COLDWATER      LGT RAIN  71  68  90 NW7       29.84F
HOLLAND        LGT RAIN  70  66  87 SW17G26   29.80S FOG
GRAND RAPIDS   LGT RAIN  73  68  84 W18G26    29.80R
KALAMAZOO      CLOUDY    75  65  70 SW10      29.82F
MARSHALL       LGT RAIN  72  65  79 SW10G18   29.82F
MUSKEGON       LGT RAIN  67  62  84 SW14      29.77F
$$
MIZ016>042-202200-
NORTHERN LOWER MICHIGAN

CITY           SKY/WX    TMP DP  RH WIND       PRES   REMARKS
ALPENA         LGT RAIN  66  63  90 SW10      29.66F
BEAVER ISLAND  CLOUDY    67  62  86 SW16G23   29.65R
BELLAIRE       LGT RAIN  69  62  79 SW7       29.67F
CADILLAC       CLOUDY    64  63  96 SW14      29.73F
CHARLEVOIX     MOSUNNY   69  64  83 SW13G21   29.68S
FRANKFORT      DRIZZLE   65  60  85 SW12G18   29.69S
GAYLORD        CLOUDY    65  62  90 SW17      29.70S
GRAYLING       MIX PCPN  67  67  98 SW6       29.72F
HARBOR SPRINGS CLOUDY    68  62  82 SW8G17    29.64F
HOUGHTON LAKE  HVY RAIN  65  61  87 W12G25    29.73R FOG
MANISTEE       PTSUNNY   70  61  73 SW8G17    29.71F
OSCODA         PTSUNNY   74  62  66 S10G16    29.68F
PELLSTON       MOSUNNY   70  63  78 SW13G22   29.64F
TRAVERSE CITY  PTSUNNY   71  62  73 SW10G18   29.66F
$$
MIZ007>008-015-202200-
EASTERN UPPER MICHIGAN

CITY           SKY/WX    TMP DP  RH WIND       PRES   REMARKS
KINROSS        CLOUDY    64  63  94 SW8       29.63R
MACKINAC ISLAN CLOUDY    66  63  89 SW10G17   29.63S
NEWBERRY       CLOUDY    65  61  85 W9        29.63R
S. S. MARIE    CLOUDY    67  61  81 SW10      29.61S
$$
MIZ004>006-011>014-085-202200-
CENTRAL UPPER MICHIGAN

CITY           SKY/WX    TMP DP  RH WIND       PRES   REMARKS
MANISTIQUE     CLOUDY    69  62  78 NE5       29.63R
ESCANABA       CLOUDY    75  55  50 NW16G22   29.62R
MENOMINEE      CLOUDY    73  63  68 W6        29.63S
SAWYER-GWINN   MOSUNNY   70  55  60 NW13      29.65R
$$
MIZ001>003-009>011-084-202200-
WESTERN UPPER MICHIGAN

CITY           SKY/WX    TMP DP  RH WIND       PRES   REMARKS
IRON MOUNTAIN  MOSUNNY   73  53  49 NW14      29.66S
HOUGHTON       PTSUNNY   59  52  77 W13       29.68R
COPPER HARBOR    N/A     58  52  80 N16       29.65R
IRONWOOD       MOSUNNY   64  54  68 NW12      29.68F
$$

ABBREVIATIONS USED IN REMARKS
   TC - TEMPERATURE IN CELSIUS
  WCI - WIND CHILL INDEX
   HX - HEAT INDEX
  VSB - VISIBILITY




USA.gov is the U.S. government's official web portal to all federal, state and local government web resources and services.